Airfield :
LOGIN :

Register | Disclaimer

   EN    FR    IT 

 










Legend :    VFR   Marginal VFR   IFR   Intensive IFR   Very Intensive IFR
Visi :
Ceiling :
>= 8 km
>= 3000ft
5 to 8 km
1000 to 3000 ft
1500m to 5 km
500 to 1000 ft
800 to 1500m
200 to 500 ft
< 800m
< 200 ft
Symbols :   Thunderstorms  Fog  Heavy snow  Heavy precipitations  Wind > 20 kt
SIGMETs :     Misc.  Thunderstorms  Icing  Turbulence  Mountain Waves  Volcanic Ashes







- Airport Elevation : 79 ft
- IATA code : NSY


LICZ - Sigonella (Mil) Catania

EXPIRED METARs :
  • 241355Z 10016KT 9999 FEW025 35/17 Q1016 RMK FEW VIS MIN 9999 WIND THR28 10015KT WIND THR10 10016KT A3002 BLU
  • 241255Z 10018KT 9999 FEW025 36/17 Q1016 RMK FEW VIS MIN 9999 WIND THR28 08016KT WIND THR10 09018KT A3002 BLU
  • 241155Z 09017KT 9999 FEW025 36/18 Q1016 RMK FEW VIS MIN 9999 WIND THR28 08015KT WIND THR10 09016KT A3003 BLU

Expired Forecast.
No reported NOTAMs for that airfield.



MET'MAP, your aeronautical weather chart ! - Copyright ORBIFLY December 2007 - Disclaimer

ORBIFLY MET'MAP TEAM :

Programming & Development : Alexandra Zaïnal
Concept & Development : Baudouin d'Aumeries
Co-Development & Prog : Marc-Olivier Méhu
Technical & hardware support : Manuel Goepfert

Contact : metmap@orbifly.com




SOURCES & CREDITS :

   NOAA